Tracking 18796 objects as of 19-September-2017
HD Live streaming from Space Station
objects crossing your sky now

COSMOS 2378

Track COSMOS 2378 now!
10-day predictions
COSMOS 2378 is classified as:


NORAD ID: 26818
Int'l Code: 2001-023A
Perigee: 969.2 km
Apogee: 1,016.2 km
Inclination: 82.9 °
Period: 104.8 minutes
Semi major axis: 7363 km
RCS: 1.9621 m2 (large)
Launch date: June 8, 2001
Source: Commonwealth of Independent States (former USSR) (CIS)
Launch site: PLESETSK MISSILE AND SPACE COMPLEX (PKMTR)

Normally part of a six-satellite constellation.
aabbcc
Your satellite tracking list
Your tracking list is empty





NASA's NSSDC Master Catalog

Two Line Element Set (TLE):
1 26818U 01023A   17262.05512178 +.00000045 +00000-0 +31867-4 0  9996
2 26818 082.9260 067.8233 0031946 299.1294 060.6688 13.73917118816428
Source of the keplerian elements: AFSPC